Warroad, MN

5:13 AM CDT on August 19, 2017 (GMT -0500)
Warroad International-Carlson

Weather History for KRRT - August, 2013

Change the Weather History Date:

Saturday, August 31, 2013

  Actual Average Record
Temperature  
Mean Temperature 71 °F -  
Max Temperature 82 °F 72 °F 95 °F (1953)
Min Temperature 60 °F 49 °F 37 °F (1987)
Cooling Degree Days 6    
Growing Degree Days 21 (Base 50)    
Moisture  
Dew Point 65 °F    
Average Humidity 82    
Maximum Humidity 94    
Minimum Humidity 65    
Precipitation  
Precipitation 0.55 in - - ()
Sea Level Pressure  
Sea Level Pressure 29.73 in    
Wind  
Wind Speed 8 mph (SW)    
Max Wind Speed 24 mph    
Max Gust Speed 41 mph    
Visibility 10 miles    
Events Rain , Thunderstorm    
Averages and records for this station are not official NWS values.
T = Trace of Precipitation, MM = Missing Value Source: NWS Daily Summary

Daily Weather History Graph

Daily Weather History Graph

Search for Another Location

Airport or City:

Trip Planner

Search our weather history database for the weather conditions in past years. The results will help you decide how hot, cold, wet, or windy it might be!

Date:

Astronomy

Aug. 31, 2013 Rise Set
Actual Time 6:37 AM CDT 8:05 PM CDT
Civil Twilight 6:04 AM CDT 8:37 PM CDT
Nautical Twilight 5:23 AM CDT 9:17 PM CDT
Astronomical Twilight 4:40 AM CDT 10:01 PM CDT
Moon 1:51 AM CDT (8/31) 5:17 PM CDT (8/31)
Length of Visible Light 14h 33m
Length of Day
13h 28m
Waning Crescent, 21% of the Moon is Illuminated
Aug 31
Waning Crescent
Sep 5
New
Sep 12
First Quarter
Sep 19
Full
Sep 26
Last Quarter

Hourly Weather History & Observations

Time (CDT) Temp. Heat Index Dew Point Humidity Pressure Visibility Wind Dir Wind Speed Gust Speed Precip Events Conditions
12:14 AM 69.8 °F - 66.2 °F 88% 29.80 in 10.0 mi South 5.8 mph - N/A   Clear
12:33 AM 69.8 °F - 66.2 °F 88% 29.79 in 10.0 mi South 6.9 mph - N/A   Clear
12:54 AM 69.8 °F - 66.2 °F 88% 29.80 in 10.0 mi SSW 10.4 mph - N/A   Clear
1:14 AM 69.8 °F - 66.2 °F 88% 29.79 in 10.0 mi SSW 8.1 mph - N/A   Clear
1:33 AM 69.8 °F - 66.2 °F 88% 29.79 in 10.0 mi SSW 8.1 mph - N/A   Clear
1:54 AM 69.8 °F - 66.2 °F 88% 29.80 in 10.0 mi SSW 8.1 mph - N/A   Clear
2:14 AM 69.8 °F - 66.2 °F 88% 29.79 in 10.0 mi SSW 8.1 mph - N/A   Clear
2:33 AM 69.8 °F - 66.2 °F 88% 29.78 in 10.0 mi South 6.9 mph - N/A   Clear
2:54 AM 69.8 °F - 66.2 °F 88% 29.77 in 10.0 mi SSW 8.1 mph - N/A   Clear
3:14 AM 69.8 °F - 66.2 °F 88% 29.76 in 10.0 mi SSW 5.8 mph - N/A   Clear
3:34 AM 69.8 °F - 66.2 °F 88% 29.77 in 10.0 mi SSW 8.1 mph - N/A   Clear
3:54 AM 71.6 °F - 66.2 °F 83% 29.79 in 10.0 mi SW 12.7 mph 17.3 mph N/A   Mostly Cloudy
4:13 AM 69.8 °F - 66.2 °F 88% 29.82 in 10.0 mi WSW 8.1 mph - N/A Rain , Thunderstorm Thunderstorms and Rain
4:34 AM 69.8 °F - 64.4 °F 83% 29.80 in 10.0 mi SW 10.4 mph - 0.01 in Rain Light Rain
4:54 AM 68.0 °F - 64.4 °F 88% 29.76 in 10.0 mi SSW 5.8 mph - 0.04 in Rain Light Rain
5:13 AM 68.0 °F - 64.4 °F 88% 29.77 in 10.0 mi SSW 6.9 mph - N/A Thunderstorm Unknown
5:34 AM 66.2 °F - 64.4 °F 94% 29.77 in 10.0 mi Calm Calm - N/A Thunderstorm Thunderstorm
5:54 AM 66.2 °F - 62.6 °F 88% 29.77 in 10.0 mi Calm Calm - N/A   Mostly Cloudy
6:13 AM 66.2 °F - 62.6 °F 88% 29.75 in 10.0 mi SSW 3.5 mph - N/A   Scattered Clouds
6:34 AM 66.2 °F - 62.6 °F 88% 29.77 in 10.0 mi SSW 13.8 mph - N/A   Clear
6:54 AM 68.0 °F - 62.6 °F 83% 29.79 in 10.0 mi WSW 13.8 mph 21.9 mph N/A Rain Light Rain
7:13 AM 66.2 °F - 62.6 °F 88% 29.77 in 10.0 mi West 8.1 mph 16.1 mph 0.01 in Rain Light Rain
7:34 AM 66.2 °F - 62.6 °F 88% 29.73 in 10.0 mi SW 24.2 mph 33.4 mph 0.04 in Rain Light Rain
7:53 AM 68.0 °F - 60.8 °F 78% 29.72 in 10.0 mi West 6.9 mph 17.3 mph 0.05 in   Scattered Clouds
8:14 AM 68.0 °F - 60.8 °F 78% 29.72 in 10.0 mi SSW 5.8 mph - N/A   Clear
8:34 AM 66.2 °F - 62.6 °F 88% 29.73 in 10.0 mi SW 5.8 mph - N/A   Clear
8:53 AM 68.0 °F - 62.6 °F 83% 29.75 in 10.0 mi WSW 8.1 mph - N/A   Clear
9:14 AM 69.8 °F - 64.4 °F 83% 29.74 in 10.0 mi SW 9.2 mph - N/A   Clear
9:34 AM 69.8 °F - 64.4 °F 83% 29.74 in 10.0 mi SW 9.2 mph - N/A   Clear
9:53 AM 71.6 °F - 64.4 °F 78% 29.73 in 10.0 mi WSW 8.1 mph - N/A   Scattered Clouds
10:14 AM 71.6 °F - 66.2 °F 83% 29.74 in 10.0 mi West 4.6 mph - N/A   Scattered Clouds
10:34 AM 73.4 °F - 66.2 °F 78% 29.73 in 10.0 mi South 4.6 mph - N/A   Clear
10:54 AM 75.2 °F - 68.0 °F 78% 29.72 in 10.0 mi South 4.6 mph - N/A   Clear
11:14 AM 75.2 °F - 69.8 °F 83% 29.72 in 10.0 mi SSW 6.9 mph - N/A   Clear
11:34 AM 75.2 °F - 69.8 °F 83% 29.72 in 10.0 mi SSW 3.5 mph - N/A   Clear
11:54 AM 78.8 °F - 69.8 °F 74% 29.72 in 10.0 mi SSW 9.2 mph - N/A   Clear
12:13 PM 78.8 °F - 69.8 °F 74% 29.71 in 10.0 mi SSW 9.2 mph - N/A   Clear
12:34 PM 80.6 °F 83.9 °F 69.8 °F 70% 29.70 in 10.0 mi South 11.5 mph - N/A   Clear
12:54 PM 80.6 °F 83.2 °F 68.0 °F 65% 29.70 in 10.0 mi SW 15.0 mph - N/A   Clear
1:13 PM 80.6 °F 83.9 °F 69.8 °F 70% 29.71 in 10.0 mi SW 13.8 mph 18.4 mph N/A   Clear
1:34 PM 80.6 °F 83.9 °F 69.8 °F 70% 29.71 in 10.0 mi SW 12.7 mph 19.6 mph N/A   Clear
1:54 PM 82.4 °F 87.2 °F 71.6 °F 70% 29.72 in 10.0 mi SW 11.5 mph 17.3 mph N/A   Clear
2:14 PM 80.6 °F 83.9 °F 69.8 °F 70% 29.73 in 10.0 mi WSW 12.7 mph 19.6 mph N/A   Clear
2:33 PM 78.8 °F - 68.0 °F 69% 29.72 in 10.0 mi SW 13.8 mph 18.4 mph N/A Rain , Thunderstorm Light Thunderstorms and Rain
2:54 PM 78.8 °F - 68.0 °F 69% 29.70 in 10.0 mi SW 6.9 mph - N/A Thunderstorm Scattered Clouds
3:14 PM 78.8 °F - 66.2 °F 65% 29.69 in 10.0 mi WSW 6.9 mph - N/A   Clear
3:34 PM 77.0 °F - 66.2 °F 69% 29.69 in 10.0 mi WSW 8.1 mph - N/A   Clear
3:53 PM 75.2 °F - 68.0 °F 78% 29.70 in 10.0 mi WSW 8.1 mph - N/A   Light Drizzle
4:14 PM 75.2 °F - 66.2 °F 73% 29.70 in 10.0 mi WSW 8.1 mph - N/A   Clear
4:34 PM 75.2 °F - 68.0 °F 78% 29.70 in 10.0 mi West 6.9 mph - N/A   Scattered Clouds
4:53 PM 78.8 °F - 69.8 °F 74% 29.67 in 10.0 mi West 4.6 mph - N/A   Clear
5:14 PM 78.8 °F - 69.8 °F 74% 29.63 in 10.0 mi WSW 5.8 mph - N/A   Clear
5:34 PM 78.8 °F - 69.8 °F 74% 29.61 in 10.0 mi SSW 5.8 mph - N/A   Clear
5:53 PM 78.8 °F - 69.8 °F 74% 29.61 in 10.0 mi WSW 5.8 mph - N/A   Clear
6:14 PM 78.8 °F - 69.8 °F 74% 29.62 in 10.0 mi SW 4.6 mph - N/A   Clear
6:34 PM 77.0 °F - 69.8 °F 78% 29.64 in 10.0 mi SW 5.8 mph - N/A   Clear
6:53 PM 75.2 °F - 69.8 °F 83% 29.64 in 10.0 mi South 3.5 mph - N/A   Scattered Clouds
7:14 PM 75.2 °F - 69.8 °F 83% 29.64 in 10.0 mi Calm Calm - N/A Thunderstorm Mostly Cloudy
7:34 PM 69.8 °F - 62.6 °F 78% 29.71 in 1.8 mi WNW 21.9 mph 41.4 mph 0.20 in Rain , Thunderstorm Heavy Thunderstorms and Rain
7:53 PM 60.8 °F - 57.2 °F 88% 29.72 in 10.0 mi WNW 4.6 mph - 0.45 in Rain , Thunderstorm Light Thunderstorms and Rain
8:14 PM 60.8 °F - 57.2 °F 88% 29.68 in 10.0 mi NNW 10.4 mph 16.1 mph 0.01 in   Light Drizzle
8:34 PM 60.8 °F - 57.2 °F 88% 29.70 in 10.0 mi NW 4.6 mph - 0.01 in   Clear
8:53 PM 60.8 °F - 57.2 °F 88% 29.70 in 10.0 mi WSW 3.5 mph - 0.01 in   Clear
9:14 PM 60.8 °F - 57.2 °F 88% 29.72 in 10.0 mi West 4.6 mph - N/A   Clear
9:34 PM 60.8 °F - 57.2 °F 88% 29.73 in 10.0 mi WSW 3.5 mph - N/A   Clear
9:53 PM 60.8 °F - 57.2 °F 88% 29.74 in 10.0 mi WSW 5.8 mph - N/A   Scattered Clouds
10:14 PM 60.8 °F - 57.2 °F 88% 29.75 in 10.0 mi West 9.2 mph - N/A   Mostly Cloudy
10:34 PM 62.6 °F - 57.2 °F 82% 29.75 in 10.0 mi West 9.2 mph - N/A   Overcast
10:53 PM 62.6 °F - 57.2 °F 82% 29.75 in 10.0 mi WSW 8.1 mph - N/A   Mostly Cloudy
11:14 PM 62.6 °F - 59.0 °F 88% 29.75 in 10.0 mi West 8.1 mph - N/A Rain Rain
11:34 PM 62.6 °F - 59.0 °F 88% 29.74 in 10.0 mi West 8.1 mph - N/A Thunderstorm Unknown
11:53 PM 64.4 °F - 60.8 °F 88% 29.75 in 10.0 mi WNW 12.7 mph - N/A   Light Drizzle